Regional Weather Roundup
Issued by NWS

Home | Current Version | Previous Version | Graphics & Text | Print | Product List | Glossary Off
Versions: 1 2 3 4 5 6 7 8 9 10 11 12 13 14 15 16 17 18 19 20 21 22 23 24 25 26 27 28 29 30 31 32 33 34 35 36 37 38 39 40 41 42 43 44 45 46 47 48 49 50

000
ASUS43 KMKX 220920
RWRWI

WISCONSIN REGIONAL WEATHER ROUNDUP
NATIONAL WEATHER SERVICE MILWAUKEE/SULLIVAN WI
400 AM CDT TUE MAY 22 2018

NOTE: "FAIR" INDICATES FEW OR NO CLOUDS BELOW 12,000 FEET WITH NO
SIGNIFICANT WEATHER AND/OR OBSTRUCTIONS TO VISIBILITY.

WIZ001-002-006>008-014>016-023>028-221000-
NORTHWEST WISCONSIN

CITY           SKY/WX    TMP DP  RH WIND       PRES   REMARKS
SUPERIOR ARPT  CLOUDY    51  43  73 CALM      30.01S
ASHLAND        MOCLDY    54  50  86 S5        30.01S
HAYWARD        CLOUDY    57  54  89 SW3       30.03S
SIREN          CLOUDY    57  52  82 CALM      30.03S
CUMBERLAND     CLOUDY    54  52  94 CALM      30.03S FOG
RICE LAKE      CLOUDY    55  54  96 CALM      30.05R FOG
CHETEK         CLOUDY    54  54 100 E3        30.03F FOG
LADYSMITH      FOG       54  53  97 CALM      30.05S VSB 1
EAU CLAIRE     CLOUDY    54  54 100 CALM      30.02S FOG
MENOMONIE      CLOUDY    56  55  98 E3        30.03S FOG
NEW RICHMOND   CLOUDY    56  55  94 CALM      30.03S
OSCEOLA        CLOUDY    58  54  86 CALM      30.05S
$$

WIZ003>005-009-010-017-018-221000-
NORTH CENTRAL WISCONSIN

CITY           SKY/WX    TMP DP  RH WIND       PRES   REMARKS
MANITOWISH WTR CLOUDY    52  52 100 CALM      30.03S
ARBOR VITAE    CLOUDY    53  50  90 CALM      30.03S
WOODRUFF       CLOUDY    53  50  90 CALM      30.03S
RHINELANDER    CLOUDY    52  50  93 CALM      30.03S
EAGLE RIVER    CLOUDY    50  46  83 CALM      30.03S
LAND O LAKES   CLOUDY    52  47  83 CALM      30.04S
PHILLIPS       CLOUDY    52  52 100 S3        30.03S
TOMAHAWK       CLOUDY    49  48  95 CALM      30.04S
MEDFORD        CLOUDY    50  49  98 CALM      30.02F FOG
MERRILL        CLOUDY    51  51 100 CALM      30.04S
$$

WIZ029-030-035-036-043>047-221000-
CENTRAL WISCONSIN

CITY           SKY/WX    TMP DP  RH WIND       PRES   REMARKS
WAUSAU         CLOUDY    50  49  96 E3        30.01F FOG
MOSINEE        DRIZZLE   50  50 100 CALM      30.03F
MARSHFIELD     CLOUDY    51  51 100 E5        30.00F FOG
STEVENS POINT  DRIZZLE   49  49 100 NE3       30.03S
WAUPACA        CLOUDY    53  52  97 N3        30.02S FOG
WAUTOMA        CLOUDY    51  50  96 CALM      30.02S FOG
WISC RAPIDS    CLOUDY    52  50  93 E3        30.02F FOG
CAMP DOUGLAS   CLOUDY    52  52 100 CALM      30.01S FOG
$$

WIZ011>013-019>022-031-037>040-048>050-221000-
NORTHEAST WISCONSIN

CITY           SKY/WX    TMP DP  RH WIND       PRES   REMARKS
ANTIGO         DRIZZLE   47  47 100 CALM      30.03S
SHAWANO        CLOUDY    52  50  92 N3        30.02F
OCONTO         CLOUDY    50  49  98 CALM      30.02F
STURGEON BAY   CLOUDY    48  48 100 NE5       30.03S FOG
GREEN BAY      CLOUDY    51  49  92 NW3       30.01F FOG
MANITOWOC      FOG       48  48 100 NE5       30.01F VSB 3/4
APPLETON       CLOUDY    50  50 100 N6        30.00S FOG
CLINTONVILLE   LGT RAIN  51  49  93 CALM      30.02F
OSHKOSH        CLOUDY    52  50  93 N6        30.00S
$$

WIZ032>034-041-042-053>061-221000-
SOUTHWEST WISCONSIN

CITY           SKY/WX    TMP DP  RH WIND       PRES   REMARKS
LA CROSSE      CLOUDY    58  56  93 E3        30.00S
SPARTA         DRIZZLE   51  51 100 CALM      30.02S
VIROQUA        CLOUDY    55  55 100 NE3       30.01S VSB 1/2
BOSCOBEL       CLOUDY    57  56  96 CALM      30.00S FOG
PRAIRIE DU CHI CLOUDY    59  58  96 CALM      29.99S FOG
PLATTEVILLE    CLOUDY    59  59 100 CALM      30.00S
$$

WIZ056-057-062-063-064-067-068-221000-
SOUTH CENTRAL WISCONSIN

CITY           SKY/WX    TMP DP  RH WIND       PRES   REMARKS
REEDSBURG      CLOUDY    52  52 100 CALM      30.00S FOG
BARABOO/DELLS  CLOUDY    51  50  96 CALM      30.01S FOG
LONE ROCK      CLOUDY    55  55 100 CALM      30.00S
MINERAL POINT  CLOUDY    57  57 100 CALM      30.00S FOG
MADISON        CLOUDY    52  51  97 N5        30.00R FOG
MIDDLETON      CLOUDY    53  53 100 CALM      30.01S
WATERTOWN      CLOUDY    50  50 100 N3        30.00S FOG
MONROE         FOG       54  54 100 N6        29.98F VSB 1/4
JANESVILLE     CLOUDY    54  54 100 CALM      29.99S FOG
$$

WIZ051-052-058>065-066-070>072-221000-
SOUTHEAST WISCONSIN

CITY           SKY/WX    TMP DP  RH WIND       PRES   REMARKS
MILWAUKEE      FOG       49  49 100 CALM      29.99S VSB 1/4
WAUKESHA       FOG       46  46 100 N3        30.00S VSB 1/2
MILWAUKEE/TIMM FOG       48  45  87 CALM      30.01S VSB 1/2
RACINE         FOG       47  47 100 N7        30.01S VSB 1/4
BURLINGTON     CLOUDY    49  49  99 CALM      29.99R FOG
KENOSHA        FOG       49  48  97 N5        29.99S VSB 1/2
FOND DU LAC    LGT RAIN  51  49  92 NW3       30.01R
SHEBOYGAN      FOG       49  48  97 NE7       30.00F VSB 1
WEST BEND      CLOUDY    48  48 100 CALM      30.00S FOG
JUNEAU         CLOUDY    49  49  99 CALM      30.01S FOG
$$

LSZ147-162-221000-
LAKE SUPERIOR

STATION/POSITION TIME  TEMP    WIND        PRES    WAVE
                       AIR SEA DIR/SP/G            HT/PER
                 (UTC) (F)     (DEG/KT/KT) (MB)    (FT/S)
W MID LAKE BUOY  0850   38 36  220/  4/  6 1016.4R   0
DEVILS ISLAND    0900   46     220/  8/  9 1016.5F
SAXON HARBOR     0840   48      60/  4/ 11 1015.9R
$$

LMZ867-665-643>646-221000-
LAKE MICHIGAN

STATION/POSITION TIME  TEMP    WIND        PRES    WAVE
                       AIR SEA DIR/SP/G            HT/PER
                 (UTC) (F)     (DEG/KT/KT) (MB)    (FT/S)
N MID LAKE BUOY  0900   42 37   20/  4/  4 1016.8
NORTHPORT PIER   0840   47        CALM     1016.9F
KEWAUNEE LAKESHO 0854   46      30/  4/  7 1015.9F
SHEBOYGAN LAKESH 0900   45      20/ 12/ 14 1016.2F
PORT WASHINGTON  0830   50     360/  2/  3 1016.9R
ATWATER BUOY     0837   45 47   20/ 10/ 12 1015.8F
MILWAUKEE LAKESH 0900   48      20/  5/  6   N/A
KENOSHA   LAKESH 0900   48                 1015.2
$$

TC  - TEMPERATURE IN CELSIUS
VSB - VISIBILITY IN STATUTE MILES
WCI - WIND CHILL INDEX
HX  - HEAT INDEX





USA.gov is the U.S. government's official web portal to all federal, state and local government web resources and services.